Time,TemperatureF,DewpointF,PressureIn,WindDirection,WindDirectionDegrees,WindSpeedMPH,WindSpeedGustMPH,Humidity,HourlyPrecipIn,Conditions,Clouds,dailyrainin,SoftwareType,DateUTC
2013-03-22 00:05:00,23.9,17.4,30.00,NW,322,0.0,0.0,76,0.00,CLR,,0.00,WeatherDisplay:10.37,2013-03-22 05:05:00,
2013-03-22 00:10:00,23.7,15.7,30.00,NW,322,0.0,0.0,71,0.00,CLR,,0.00,WeatherDisplay:10.37,2013-03-22 05:10:00,
2013-03-22 00:15:00,23.6,15.6,30.00,NW,322,0.0,0.0,71,0.00,CLR,,0.00,WeatherDisplay:10.37,2013-03-22 05:15:00,
2013-03-22 00:20:00,23.5,15.5,30.00,NW,322,0.0,0.0,71,0.00,CLR,,0.00,WeatherDisplay:10.37,2013-03-22 05:20:00,
2013-03-22 00:25:00,23.5,15.8,30.00,NW,322,0.0,0.0,72,0.00,CLR,,0.00,WeatherDisplay:10.37,2013-03-22 05:25:00,
2013-03-22 00:30:00,23.4,15.7,30.00,NW,322,0.0,0.0,72,0.00,CLR,,0.00,WeatherDisplay:10.37,2013-03-22 05:30:00,
2013-03-22 00:36:00,23.4,15.7,30.00,NW,322,0.0,0.0,72,0.00,CLR,,0.00,WeatherDisplay:10.37,2013-03-22 05:36:00,
2013-03-22 00:41:00,23.4,15.7,30.00,NW,322,0.0,0.0,72,0.00,CLR,,0.00,WeatherDisplay:10.37,2013-03-22 05:41:00,
2013-03-22 00:46:00,23.3,15.6,30.00,NW,322,0.0,0.0,72,0.00,CLR,,0.00,WeatherDisplay:10.37,2013-03-22 05:46:00,
2013-03-22 00:52:00,23.2,15.5,30.00,NW,322,0.0,0.0,72,0.00,CLR,,0.00,WeatherDisplay:10.37,2013-03-22 05:52:00,
2013-03-22 00:57:00,23.2,15.5,30.01,NW,322,0.0,0.0,72,0.00,CLR,,0.00,WeatherDisplay:10.37,2013-03-22 05:57:00,
2013-03-22 01:02:00,23.1,15.4,30.01,NW,322,0.0,0.0,72,0.00,CLR,,0.00,WeatherDisplay:10.37,2013-03-22 06:02:00,
2013-03-22 01:07:00,23.0,15.3,30.01,NW,322,0.0,0.0,72,0.00,CLR,,0.00,WeatherDisplay:10.37,2013-03-22 06:07:00,
2013-03-22 01:12:00,22.9,15.2,30.01,NW,322,0.0,0.0,72,0.00,CLR,,0.00,WeatherDisplay:10.37,2013-03-22 06:12:00,
2013-03-22 01:17:00,22.8,15.1,30.01,NW,322,0.0,0.0,72,0.00,CLR,,0.00,WeatherDisplay:10.37,2013-03-22 06:17:00,
2013-03-22 01:23:00,22.6,14.9,30.00,NW,322,0.0,0.0,72,0.00,CLR,,0.00,WeatherDisplay:10.37,2013-03-22 06:23:00,
2013-03-22 01:28:00,22.3,14.6,30.01,NW,322,0.0,0.0,72,0.00,CLR,,0.00,WeatherDisplay:10.37,2013-03-22 06:28:00,
2013-03-22 01:33:00,22.2,14.5,30.00,NW,322,0.0,0.0,72,0.00,CLR,,0.00,WeatherDisplay:10.37,2013-03-22 06:33:00,
2013-03-22 01:38:00,22.1,14.8,30.01,NW,322,0.0,0.0,73,0.00,CLR,,0.00,WeatherDisplay:10.37,2013-03-22 06:38:00,
2013-03-22 01:43:00,21.9,14.6,30.01,NW,322,0.0,0.0,73,0.00,CLR,,0.00,WeatherDisplay:10.37,2013-03-22 06:43:00,
2013-03-22 01:48:00,21.7,14.7,30.01,NW,322,0.0,0.0,74,0.00,CLR,,0.00,WeatherDisplay:10.37,2013-03-22 06:48:00,
2013-03-22 01:53:00,21.6,14.6,30.01,NW,322,0.0,0.0,74,0.00,CLR,,0.00,WeatherDisplay:10.37,2013-03-22 06:53:00,
2013-03-22 01:58:00,21.5,14.5,30.01,NW,322,0.0,0.0,74,0.00,CLR,,0.00,WeatherDisplay:10.37,2013-03-22 06:58:00,
2013-03-22 02:03:00,21.4,14.7,30.00,NW,322,0.0,0.0,75,0.00,CLR,,0.00,WeatherDisplay:10.37,2013-03-22 07:03:00,
2013-03-22 02:09:00,21.2,14.5,30.00,NW,322,0.0,0.0,75,0.00,CLR,,0.00,WeatherDisplay:10.37,2013-03-22 07:09:00,
2013-03-22 02:14:00,21.1,14.4,30.01,NW,322,0.0,0.0,75,0.00,CLR,,0.00,WeatherDisplay:10.37,2013-03-22 07:14:00,
2013-03-22 02:19:00,21.0,14.6,30.01,NW,322,0.0,0.0,76,0.00,CLR,,0.00,WeatherDisplay:10.37,2013-03-22 07:19:00,
2013-03-22 02:24:00,21.1,14.7,30.01,NW,322,0.0,0.0,76,0.00,CLR,,0.00,WeatherDisplay:10.37,2013-03-22 07:24:00,
2013-03-22 02:29:00,21.1,15.0,30.01,NW,322,0.0,0.0,77,0.00,CLR,,0.00,WeatherDisplay:10.37,2013-03-22 07:29:00,
2013-03-22 02:34:00,21.1,15.0,30.01,NW,322,0.0,0.0,77,0.00,CLR,,0.00,WeatherDisplay:10.37,2013-03-22 07:34:00,
2013-03-22 02:39:00,21.1,15.0,30.01,NW,322,0.0,0.0,77,0.00,CLR,,0.00,WeatherDisplay:10.37,2013-03-22 07:39:00,
2013-03-22 02:44:00,21.2,15.4,30.01,NW,322,0.0,0.0,78,0.00,CLR,,0.00,WeatherDisplay:10.37,2013-03-22 07:44:00,
2013-03-22 02:49:00,21.2,15.4,30.01,NW,322,0.0,0.0,78,0.00,CLR,,0.00,WeatherDisplay:10.37,2013-03-22 07:49:00,
2013-03-22 02:54:00,21.3,15.5,30.01,NW,322,0.0,0.0,78,0.00,CLR,,0.00,WeatherDisplay:10.37,2013-03-22 07:54:00,
2013-03-22 03:00:00,21.3,15.5,30.01,NW,322,0.0,0.0,78,0.00,CLR,,0.00,WeatherDisplay:10.37,2013-03-22 08:00:00,
2013-03-22 03:05:00,21.3,15.8,30.01,NW,322,0.0,0.0,79,0.00,CLR,,0.00,WeatherDisplay:10.37,2013-03-22 08:05:00,
2013-03-22 03:10:00,21.2,15.7,30.01,NW,322,0.0,0.0,79,0.00,CLR,,0.00,WeatherDisplay:10.37,2013-03-22 08:10:00,
2013-03-22 03:15:00,21.1,15.6,30.01,NW,322,0.0,0.0,79,0.00,CLR,,0.00,WeatherDisplay:10.37,2013-03-22 08:15:00,
2013-03-22 03:20:00,21.1,15.6,30.01,NW,322,0.0,0.0,79,0.00,CLR,,0.00,WeatherDisplay:10.37,2013-03-22 08:20:00,
2013-03-22 03:25:00,20.9,15.4,30.01,NW,322,0.0,0.0,79,0.00,CLR,,0.00,WeatherDisplay:10.37,2013-03-22 08:25:00,
2013-03-22 03:30:00,20.8,15.3,30.01,NW,322,0.0,0.0,79,0.00,CLR,,0.00,WeatherDisplay:10.37,2013-03-22 08:30:00,
2013-03-22 03:35:00,20.9,15.4,30.01,NW,322,0.0,0.0,79,0.00,CLR,,0.00,WeatherDisplay:10.37,2013-03-22 08:35:00,
2013-03-22 03:41:00,21.2,16.0,30.01,NW,322,0.0,0.0,80,0.00,CLR,,0.00,WeatherDisplay:10.37,2013-03-22 08:41:00,
2013-03-22 03:46:00,21.2,16.0,30.01,NW,322,0.0,0.0,80,0.00,CLR,,0.00,WeatherDisplay:10.37,2013-03-22 08:46:00,
2013-03-22 03:51:00,21.1,16.2,30.01,NW,322,0.0,0.0,81,0.00,CLR,,0.00,WeatherDisplay:10.37,2013-03-22 08:51:00,
2013-03-22 03:56:00,21.0,16.1,30.01,NW,322,0.0,0.0,81,0.00,CLR,,0.00,WeatherDisplay:10.37,2013-03-22 08:56:00,
2013-03-22 04:01:00,20.9,16.0,30.01,NW,322,0.0,0.0,81,0.00,CLR,,0.00,WeatherDisplay:10.37,2013-03-22 09:01:00,
2013-03-22 04:07:00,20.8,15.9,30.01,NW,322,0.0,0.0,81,0.00,CLR,,0.00,WeatherDisplay:10.37,2013-03-22 09:07:00,
2013-03-22 04:12:00,20.7,15.8,30.01,NW,322,0.0,0.0,81,0.00,CLR,,0.00,WeatherDisplay:10.37,2013-03-22 09:12:00,
2013-03-22 04:17:00,20.5,15.6,30.01,NW,322,0.0,0.0,81,0.00,CLR,,0.00,WeatherDisplay:10.37,2013-03-22 09:17:00,
2013-03-22 04:22:00,20.4,15.5,30.01,NW,322,0.0,0.0,81,0.00,CLR,,0.00,WeatherDisplay:10.37,2013-03-22 09:22:00,
2013-03-22 04:27:00,20.3,15.4,30.01,NW,322,0.0,0.0,81,0.00,CLR,,0.00,WeatherDisplay:10.37,2013-03-22 09:27:00,
2013-03-22 04:32:00,20.2,15.3,30.01,NW,322,0.0,0.0,81,0.00,CLR,,0.00,WeatherDisplay:10.37,2013-03-22 09:32:00,
2013-03-22 04:37:00,20.1,15.2,30.01,NW,322,0.0,0.0,81,0.00,CLR,,0.00,WeatherDisplay:10.37,2013-03-22 09:37:00,
2013-03-22 04:42:00,20.0,15.1,30.01,NW,322,0.0,0.0,81,0.00,CLR,,0.00,WeatherDisplay:10.37,2013-03-22 09:42:00,
2013-03-22 04:48:00,20.0,15.1,30.02,NW,322,0.0,0.0,81,0.00,CLR,,0.00,WeatherDisplay:10.37,2013-03-22 09:48:00,
2013-03-22 04:53:00,19.8,14.9,30.01,NW,322,0.0,0.0,81,0.00,CLR,,0.00,WeatherDisplay:10.37,2013-03-22 09:53:00,
2013-03-22 04:58:00,19.7,14.8,30.01,NW,322,0.0,0.0,81,0.00,CLR,,0.00,WeatherDisplay:10.37,2013-03-22 09:58:00,
2013-03-22 05:03:00,19.7,14.8,30.01,NW,322,0.0,0.0,81,0.00,CLR,,0.00,WeatherDisplay:10.37,2013-03-22 10:03:00,
2013-03-22 05:08:00,19.6,14.7,30.01,NW,322,0.0,0.0,81,0.00,CLR,,0.00,WeatherDisplay:10.37,2013-03-22 10:08:00,
2013-03-22 05:13:00,19.4,14.5,30.02,NW,322,0.0,0.0,81,0.00,CLR,,0.00,WeatherDisplay:10.37,2013-03-22 10:13:00,
2013-03-22 05:18:00,19.3,14.4,30.01,NW,322,0.0,0.0,81,0.00,CLR,,0.00,WeatherDisplay:10.37,2013-03-22 10:18:00,
2013-03-22 05:23:00,19.3,14.7,30.01,NW,322,0.0,0.0,82,0.00,CLR,,0.00,WeatherDisplay:10.37,2013-03-22 10:23:00,
2013-03-22 05:29:00,19.3,14.7,30.02,NW,322,0.0,0.0,82,0.00,CLR,,0.00,WeatherDisplay:10.37,2013-03-22 10:29:00,
2013-03-22 05:34:00,19.3,14.7,30.02,NW,322,0.0,0.0,82,0.00,CLR,,0.00,WeatherDisplay:10.37,2013-03-22 10:34:00,
2013-03-22 05:39:00,19.4,14.8,30.02,NW,322,0.0,0.0,82,0.00,CLR,,0.00,WeatherDisplay:10.37,2013-03-22 10:39:00,
2013-03-22 05:44:00,19.2,14.6,30.02,NW,322,0.0,0.0,82,0.00,CLR,,0.00,WeatherDisplay:10.37,2013-03-22 10:44:00,
2013-03-22 05:49:00,19.0,14.4,30.02,NW,322,0.0,0.0,82,0.00,CLR,,0.00,WeatherDisplay:10.37,2013-03-22 10:49:00,
2013-03-22 05:54:00,18.9,14.3,30.02,NW,322,0.0,0.0,82,0.00,CLR,,0.00,WeatherDisplay:10.37,2013-03-22 10:54:00,
2013-03-22 06:00:00,18.8,14.2,30.03,NW,322,0.0,0.0,82,0.00,CLR,,0.00,WeatherDisplay:10.37,2013-03-22 11:00:00,
2013-03-22 06:05:00,18.7,14.1,30.02,NW,322,0.0,0.0,82,0.00,CLR,,0.00,WeatherDisplay:10.37,2013-03-22 11:05:00,
2013-03-22 06:10:00,18.7,14.1,30.03,NW,322,0.0,0.0,82,0.00,CLR,,0.00,WeatherDisplay:10.37,2013-03-22 11:10:00,
2013-03-22 06:15:00,18.7,14.4,30.03,NW,322,0.0,0.0,83,0.00,CLR,,0.00,WeatherDisplay:10.37,2013-03-22 11:15:00,
2013-03-22 06:20:00,18.7,14.4,30.03,NW,322,0.0,0.0,83,0.00,CLR,,0.00,WeatherDisplay:10.37,2013-03-22 11:20:00,
2013-03-22 06:25:00,18.7,14.4,30.03,NW,322,0.0,0.0,83,0.00,CLR,,0.00,WeatherDisplay:10.37,2013-03-22 11:25:00,
2013-03-22 06:30:00,18.7,14.4,30.03,NW,322,0.0,0.0,83,0.00,CLR,,0.00,WeatherDisplay:10.37,2013-03-22 11:30:00,
2013-03-22 06:35:00,18.6,14.0,30.03,NW,322,0.0,0.0,82,0.00,CLR,,0.00,WeatherDisplay:10.37,2013-03-22 11:35:00,
2013-03-22 06:40:00,18.5,14.2,30.03,NW,322,0.0,0.0,83,0.00,CLR,,0.00,WeatherDisplay:10.37,2013-03-22 11:40:00,
2013-03-22 06:46:00,18.5,14.2,30.03,NW,322,0.0,0.0,83,0.00,CLR,,0.00,WeatherDisplay:10.37,2013-03-22 11:46:00,
2013-03-22 06:51:00,18.4,14.1,30.03,NW,322,0.0,0.0,83,0.00,CLR,,0.00,WeatherDisplay:10.37,2013-03-22 11:51:00,
2013-03-22 06:56:00,18.3,14.0,30.03,NW,322,0.0,0.0,83,0.00,CLR,,0.00,WeatherDisplay:10.37,2013-03-22 11:56:00,
2013-03-22 07:01:00,18.1,13.8,30.03,NW,322,0.0,0.0,83,0.00,CLR,,0.00,WeatherDisplay:10.37,2013-03-22 12:01:00,
2013-03-22 07:06:00,18.1,13.8,30.03,NW,322,0.0,0.0,83,0.00,CLR,,0.00,WeatherDisplay:10.37,2013-03-22 12:06:00,
2013-03-22 07:11:00,18.4,14.1,30.03,NW,322,0.0,0.0,83,0.00,CLR,,0.00,WeatherDisplay:10.37,2013-03-22 12:11:00,
2013-03-22 07:17:00,18.8,14.5,30.03,NW,322,0.0,0.0,83,0.00,CLR,,0.00,WeatherDisplay:10.37,2013-03-22 12:17:00,
2013-03-22 07:22:00,19.2,14.9,30.03,NW,322,0.0,0.0,83,0.00,CLR,,0.00,WeatherDisplay:10.37,2013-03-22 12:22:00,
2013-03-22 07:27:00,19.7,15.4,30.03,NW,322,0.0,0.0,83,0.00,CLR,,0.00,WeatherDisplay:10.37,2013-03-22 12:27:00,
2013-03-22 07:32:00,19.9,15.6,30.03,NW,322,0.0,0.0,83,0.00,CLR,,0.00,WeatherDisplay:10.37,2013-03-22 12:32:00,
2013-03-22 07:37:00,20.9,16.8,30.03,NW,322,0.0,0.0,84,0.00,CLR,,0.00,WeatherDisplay:10.37,2013-03-22 12:37:00,
2013-03-22 07:42:00,21.7,17.6,30.03,NW,322,0.0,0.0,84,0.00,CLR,,0.00,WeatherDisplay:10.37,2013-03-22 12:42:00,
2013-03-22 07:48:00,22.4,18.3,30.04,NW,322,0.0,0.0,84,0.00,CLR,,0.00,WeatherDisplay:10.37,2013-03-22 12:48:00,
2013-03-22 07:53:00,23.0,18.9,30.03,NW,322,0.0,0.0,84,0.00,CLR,,0.00,WeatherDisplay:10.37,2013-03-22 12:53:00,
2013-03-22 07:58:00,24.3,20.2,30.03,NW,322,0.0,0.0,84,0.00,CLR,,0.00,WeatherDisplay:10.37,2013-03-22 12:58:00,
2013-03-22 08:03:00,25.3,20.9,30.03,NW,322,0.0,0.0,83,0.00,CLR,,0.00,WeatherDisplay:10.37,2013-03-22 13:03:00,
2013-03-22 08:08:00,25.9,20.9,30.03,NW,322,0.0,0.0,81,0.00,CLR,,0.00,WeatherDisplay:10.37,2013-03-22 13:08:00,
2013-03-22 08:13:00,26.0,20.7,30.03,NW,323,0.0,0.0,80,0.00,CLR,,0.00,WeatherDisplay:10.37,2013-03-22 13:13:00,
2013-03-22 08:19:00,26.0,20.1,30.03,NE,40,0.0,0.0,78,0.00,CLR,,0.00,WeatherDisplay:10.37,2013-03-22 13:19:00,
2013-03-22 08:24:00,26.3,20.1,30.03,NE,40,0.0,0.0,77,0.00,CLR,,0.00,WeatherDisplay:10.37,2013-03-22 13:24:00,
2013-03-22 08:29:00,26.8,20.2,30.03,ENE,61,0.0,0.0,76,0.00,CLR,,0.00,WeatherDisplay:10.37,2013-03-22 13:29:00,
2013-03-22 08:34:00,27.4,20.5,30.03,ENE,65,0.0,0.0,75,0.00,CLR,,0.00,WeatherDisplay:10.37,2013-03-22 13:34:00,
2013-03-22 08:39:00,28.3,21.1,30.03,ENE,65,0.0,0.0,74,0.00,CLR,,0.00,WeatherDisplay:10.37,2013-03-22 13:39:00,
2013-03-22 08:44:00,28.9,21.0,30.03,East,88,0.0,0.0,72,0.00,CLR,,0.00,WeatherDisplay:10.37,2013-03-22 13:44:00,
2013-03-22 08:49:00,29.1,20.5,30.03,East,94,0.0,0.0,70,0.00,CLR,,0.00,WeatherDisplay:10.37,2013-03-22 13:49:00,
2013-03-22 08:54:00,29.1,20.2,30.03,East,101,0.0,0.0,69,0.00,CLR,,0.00,WeatherDisplay:10.37,2013-03-22 13:54:00,
2013-03-22 08:59:00,29.3,20.0,30.03,East,99,0.0,0.0,68,0.00,CLR,,0.00,WeatherDisplay:10.37,2013-03-22 13:59:00,
2013-03-22 09:05:00,29.7,20.1,30.03,East,101,0.0,0.0,67,0.00,CLR,,0.00,WeatherDisplay:10.37,2013-03-22 14:05:00,
2013-03-22 09:10:00,30.2,20.2,30.04,East,92,0.0,0.0,66,0.00,CLR,,0.00,WeatherDisplay:10.37,2013-03-22 14:10:00,
2013-03-22 09:15:00,30.2,19.8,30.03,East,90,0.0,0.0,65,0.00,CLR,,0.00,WeatherDisplay:10.37,2013-03-22 14:15:00,
2013-03-22 09:20:00,30.3,19.9,30.04,East,99,0.0,0.0,65,0.00,CLR,,0.00,WeatherDisplay:10.37,2013-03-22 14:20:00,
2013-03-22 09:25:00,30.7,20.0,30.03,East,99,0.0,0.0,64,0.00,CLR,,0.00,WeatherDisplay:10.37,2013-03-22 14:25:00,
2013-03-22 09:31:00,30.9,20.1,30.04,SE,136,0.0,0.0,64,0.00,CLR,,0.00,WeatherDisplay:10.37,2013-03-22 14:31:00,
2013-03-22 09:36:00,31.4,20.6,30.04,SE,145,0.0,0.0,64,0.00,CLR,,0.00,WeatherDisplay:10.37,2013-03-22 14:36:00,
2013-03-22 09:41:00,31.6,20.1,30.04,SW,222,0.0,0.0,62,0.00,CLR,,0.00,WeatherDisplay:10.37,2013-03-22 14:41:00,
2013-03-22 09:46:00,32.1,20.2,30.04,SSW,208,0.0,0.0,61,0.00,CLR,,0.00,WeatherDisplay:10.37,2013-03-22 14:46:00,
2013-03-22 09:52:00,32.5,20.1,30.04,SSW,207,0.0,0.0,60,0.00,CLR,,0.00,WeatherDisplay:10.37,2013-03-22 14:52:00,
2013-03-22 09:57:00,33.1,20.7,30.03,SE,136,0.0,0.0,60,0.00,CLR,,0.00,WeatherDisplay:10.37,2013-03-22 14:57:00,
2013-03-22 10:02:00,33.3,20.5,30.03,SE,134,0.0,0.0,59,0.00,CLR,,0.00,WeatherDisplay:10.37,2013-03-22 15:02:00,
2013-03-22 10:07:00,33.3,20.1,30.03,SSE,148,0.0,0.0,58,0.00,CLR,,0.00,WeatherDisplay:10.37,2013-03-22 15:07:00,
2013-03-22 10:12:00,34.0,20.3,30.04,SSW,213,0.0,0.0,57,0.00,CLR,,0.00,WeatherDisplay:10.37,2013-03-22 15:12:00,
2013-03-22 10:17:00,34.0,19.9,30.04,SSE,159,0.0,0.0,56,0.00,CLR,,0.00,WeatherDisplay:10.37,2013-03-22 15:17:00,
2013-03-22 10:23:00,34.4,19.9,30.04,SSW,199,0.0,0.0,55,0.00,CLR,,0.00,WeatherDisplay:10.37,2013-03-22 15:23:00,
2013-03-22 10:28:00,34.4,19.5,30.04,SSW,200,0.0,0.0,54,0.00,CLR,,0.00,WeatherDisplay:10.37,2013-03-22 15:28:00,
2013-03-22 10:33:00,34.8,18.9,30.04,NW,308,0.0,0.0,52,0.00,CLR,,0.00,WeatherDisplay:10.37,2013-03-22 15:33:00,
2013-03-22 10:38:00,34.4,18.1,30.04,NW,315,0.0,0.0,51,0.00,CLR,,0.00,WeatherDisplay:10.37,2013-03-22 15:38:00,
2013-03-22 10:44:00,34.4,19.0,30.03,NW,321,0.0,0.0,53,0.00,CLR,,0.00,WeatherDisplay:10.37,2013-03-22 15:44:00,
2013-03-22 10:49:00,34.5,18.7,30.04,WSW,237,3.5,3.5,52,0.00,CLR,,0.00,WeatherDisplay:10.37,2013-03-22 15:49:00,
2013-03-22 10:54:00,34.5,18.2,30.04,West,273,3.0,3.0,51,0.00,CLR,,0.00,WeatherDisplay:10.37,2013-03-22 15:54:00,
2013-03-22 10:59:00,35.0,18.7,30.04,West,271,2.3,2.3,51,0.00,CLR,,0.00,WeatherDisplay:10.37,2013-03-22 15:59:00,
2013-03-22 11:04:00,35.6,19.2,30.03,West,276,0.0,0.0,51,0.00,CLR,,0.00,WeatherDisplay:10.37,2013-03-22 16:04:00,
2013-03-22 11:09:00,35.6,18.8,30.03,South,176,1.2,0.0,50,0.00,CLR,,0.00,WeatherDisplay:10.37,2013-03-22 16:09:00,
2013-03-22 11:14:00,35.6,18.8,30.03,WSW,247,4.0,4.0,50,0.00,CLR,,0.00,WeatherDisplay:10.37,2013-03-22 16:14:00,
2013-03-22 11:19:00,35.3,18.0,30.04,WSW,253,2.3,2.3,49,0.00,CLR,,0.00,WeatherDisplay:10.37,2013-03-22 16:19:00,
2013-03-22 11:25:00,35.3,17.5,30.03,WSW,258,3.5,3.5,48,0.00,CLR,,0.00,WeatherDisplay:10.37,2013-03-22 16:25:00,
2013-03-22 11:30:00,35.4,17.6,30.03,NNE,12,2.3,0.0,48,0.00,CLR,,0.00,WeatherDisplay:10.37,2013-03-22 16:30:00,
2013-03-22 11:35:00,35.8,18.0,30.03,WNW,301,3.5,3.5,48,0.00,CLR,,0.00,WeatherDisplay:10.37,2013-03-22 16:35:00,
2013-03-22 11:40:00,35.9,18.1,30.03,WNW,290,3.5,3.5,48,0.00,CLR,,0.00,WeatherDisplay:10.37,2013-03-22 16:40:00,
2013-03-22 11:45:00,36.0,18.2,30.03,WNW,298,0.0,0.0,48,0.00,CLR,,0.00,WeatherDisplay:10.37,2013-03-22 16:45:00,
2013-03-22 11:51:00,36.3,18.0,30.03,ENE,60,1.2,1.2,47,0.00,CLR,,0.00,WeatherDisplay:10.37,2013-03-22 16:51:00,
2013-03-22 11:56:00,36.8,18.9,30.03,ENE,60,0.0,0.0,48,0.00,CLR,,0.00,WeatherDisplay:10.37,2013-03-22 16:56:00,
2013-03-22 12:02:00,36.6,16.2,30.03,SW,229,2.3,2.3,43,0.00,CLR,,0.00,WeatherDisplay:10.37,2013-03-22 17:02:00,
2013-03-22 12:07:00,36.8,17.4,30.03,West,280,4.6,4.6,45,0.00,CLR,,0.00,WeatherDisplay:10.37,2013-03-22 17:07:00,
2013-03-22 12:12:00,36.9,17.5,30.02,West,281,2.0,2.0,45,0.00,CLR,,0.00,WeatherDisplay:10.37,2013-03-22 17:12:00,
2013-03-22 12:17:00,36.7,17.8,30.02,SW,226,3.5,3.5,46,0.00,CLR,,0.00,WeatherDisplay:10.37,2013-03-22 17:17:00,
2013-03-22 12:22:00,36.9,18.0,30.02,WSW,246,4.0,4.0,46,0.00,CLR,,0.00,WeatherDisplay:10.37,2013-03-22 17:22:00,
2013-03-22 12:28:00,37.3,18.4,30.02,WNW,287,2.3,2.3,46,0.00,CLR,,0.00,WeatherDisplay:10.37,2013-03-22 17:28:00,
2013-03-22 12:33:00,37.3,18.4,30.02,ESE,102,1.2,1.2,46,0.00,CLR,,0.00,WeatherDisplay:10.37,2013-03-22 17:33:00,
2013-03-22 12:38:00,37.2,18.3,30.02,SE,128,0.0,0.0,46,0.00,CLR,,0.00,WeatherDisplay:10.37,2013-03-22 17:38:00,
2013-03-22 12:43:00,37.9,18.9,30.02,South,171,2.3,2.3,46,0.00,CLR,,0.00,WeatherDisplay:10.37,2013-03-22 17:43:00,
2013-03-22 12:48:00,38.2,18.7,30.01,WNW,284,2.0,2.0,45,0.00,CLR,,0.00,WeatherDisplay:10.37,2013-03-22 17:48:00,
2013-03-22 12:53:00,38.4,18.9,30.01,South,175,5.8,5.8,45,0.00,CLR,,0.00,WeatherDisplay:10.37,2013-03-22 17:53:00,
2013-03-22 12:58:00,37.5,18.1,30.01,SE,134,2.3,2.3,45,0.00,CLR,,0.00,WeatherDisplay:10.37,2013-03-22 17:58:00,
2013-03-22 13:03:00,37.7,18.2,30.01,SSE,163,0.0,0.0,45,0.00,CLR,,0.00,WeatherDisplay:10.37,2013-03-22 18:03:00,
2013-03-22 13:09:00,38.3,18.3,30.01,SE,128,0.0,0.0,44,0.00,CLR,,0.00,WeatherDisplay:10.37,2013-03-22 18:09:00,
2013-03-22 13:14:00,38.8,18.2,30.01,SW,236,4.6,4.6,43,0.00,CLR,,0.00,WeatherDisplay:10.37,2013-03-22 18:14:00,
2013-03-22 13:19:00,38.7,18.1,30.00,SSW,204,3.5,3.5,43,0.00,CLR,,0.00,WeatherDisplay:10.37,2013-03-22 18:19:00,
2013-03-22 13:24:00,38.8,17.6,30.00,SW,217,6.9,6.9,42,0.00,CLR,,0.00,WeatherDisplay:10.37,2013-03-22 18:24:00,
2013-03-22 13:29:00,38.9,17.7,30.00,SSW,206,2.3,2.3,42,0.00,CLR,,0.00,WeatherDisplay:10.37,2013-03-22 18:29:00,
2013-03-22 13:34:00,39.6,18.4,30.00,NW,317,3.5,3.5,42,0.00,CLR,,0.00,WeatherDisplay:10.37,2013-03-22 18:34:00,
2013-03-22 13:39:00,39.4,17.6,30.00,NNW,336,3.5,3.5,41,0.00,CLR,,0.00,WeatherDisplay:10.37,2013-03-22 18:39:00,
2013-03-22 13:44:00,39.8,18.5,29.99,NNW,336,0.0,0.0,42,0.00,CLR,,0.00,WeatherDisplay:10.37,2013-03-22 18:44:00,
2013-03-22 13:49:00,40.4,19.1,29.99,West,267,2.3,2.3,42,0.00,CLR,,0.00,WeatherDisplay:10.37,2013-03-22 18:49:00,
2013-03-22 13:55:00,40.5,18.6,29.99,West,264,0.0,0.0,41,0.00,CLR,,0.00,WeatherDisplay:10.37,2013-03-22 18:55:00,
2013-03-22 14:00:00,40.2,18.3,29.98,WNW,283,2.3,2.3,41,0.00,CLR,,0.00,WeatherDisplay:10.37,2013-03-22 19:00:00,
2013-03-22 14:05:00,40.2,17.8,29.98,WNW,303,3.5,3.5,40,0.00,CLR,,0.00,WeatherDisplay:10.37,2013-03-22 19:05:00,
2013-03-22 14:10:00,40.6,18.1,29.98,WNW,301,0.0,0.0,40,0.00,CLR,,0.00,WeatherDisplay:10.37,2013-03-22 19:10:00,
2013-03-22 14:15:00,40.9,18.4,29.98,SSW,210,4.6,4.6,40,0.00,CLR,,0.00,WeatherDisplay:10.37,2013-03-22 19:15:00,
2013-03-22 14:20:00,40.7,17.6,29.97,East,84,0.0,0.0,39,0.00,CLR,,0.00,WeatherDisplay:10.37,2013-03-22 19:20:00,
2013-03-22 14:25:00,40.7,18.2,29.97,North,360,0.0,0.0,40,0.00,CLR,,0.00,WeatherDisplay:10.37,2013-03-22 19:25:00,
2013-03-22 14:31:00,41.0,18.5,29.97,West,277,3.5,3.5,40,0.00,CLR,,0.00,WeatherDisplay:10.37,2013-03-22 19:31:00,
2013-03-22 14:36:00,41.2,18.7,29.97,SW,234,5.0,5.0,40,0.00,CLR,,0.00,WeatherDisplay:10.37,2013-03-22 19:36:00,
2013-03-22 14:41:00,41.1,18.6,29.97,SW,232,0.0,0.0,40,0.00,CLR,,0.00,WeatherDisplay:10.37,2013-03-22 19:41:00,
2013-03-22 14:46:00,41.4,18.3,29.97,NNE,23,3.5,3.5,39,0.00,CLR,,0.00,WeatherDisplay:10.37,2013-03-22 19:46:00,
2013-03-22 14:51:00,41.2,18.1,29.97,SSE,158,3.5,0.0,39,0.00,CLR,,0.00,WeatherDisplay:10.37,2013-03-22 19:51:00,
2013-03-22 14:57:00,41.0,18.5,29.97,SSW,209,0.0,0.0,40,0.00,CLR,,0.00,WeatherDisplay:10.37,2013-03-22 19:57:00,
2013-03-22 15:02:00,41.3,18.8,29.96,SSE,167,0.0,0.0,40,0.00,CLR,,0.00,WeatherDisplay:10.37,2013-03-22 20:02:00,
2013-03-22 15:07:00,42.0,19.4,29.96,SSE,161,0.0,0.0,40,0.00,CLR,,0.00,WeatherDisplay:10.37,2013-03-22 20:07:00,
2013-03-22 15:12:00,41.9,19.9,29.96,WNW,300,2.3,2.3,41,0.00,CLR,,0.00,WeatherDisplay:10.37,2013-03-22 20:12:00,
2013-03-22 15:17:00,42.1,19.5,29.96,SW,232,0.0,0.0,40,0.00,CLR,,0.00,WeatherDisplay:10.37,2013-03-22 20:17:00,
2013-03-22 15:22:00,42.6,21.1,29.96,SW,232,0.0,0.0,42,0.00,CLR,,0.00,WeatherDisplay:10.37,2013-03-22 20:22:00,
2013-03-22 15:27:00,43.4,20.1,29.96,West,261,0.0,0.0,39,0.00,CLR,,0.00,WeatherDisplay:10.37,2013-03-22 20:27:00,
2013-03-22 15:32:00,43.3,20.0,29.96,West,259,3.5,3.5,39,0.00,CLR,,0.00,WeatherDisplay:10.37,2013-03-22 20:32:00,
2013-03-22 15:37:00,42.7,20.0,29.96,WNW,286,6.9,6.9,40,0.00,CLR,,0.00,WeatherDisplay:10.37,2013-03-22 20:37:00,
2013-03-22 15:43:00,42.5,19.8,29.96,WNW,287,0.0,0.0,40,0.00,CLR,,0.00,WeatherDisplay:10.37,2013-03-22 20:43:00,
2013-03-22 15:48:00,42.8,19.5,29.96,WNW,287,0.0,0.0,39,0.00,CLR,,0.00,WeatherDisplay:10.37,2013-03-22 20:48:00,
2013-03-22 15:53:00,43.2,20.5,29.96,WNW,288,0.0,0.0,40,0.00,CLR,,0.00,WeatherDisplay:10.37,2013-03-22 20:53:00,
2013-03-22 15:58:00,43.3,20.0,29.96,NW,311,2.3,2.3,39,0.00,CLR,,0.00,WeatherDisplay:10.37,2013-03-22 20:58:00,
2013-03-22 16:03:00,42.7,19.4,29.96,NW,319,0.0,0.0,39,0.00,CLR,,0.00,WeatherDisplay:10.37,2013-03-22 21:03:00,
2013-03-22 16:08:00,43.1,20.4,29.96,WNW,294,2.0,2.0,40,0.00,CLR,,0.00,WeatherDisplay:10.37,2013-03-22 21:08:00,
2013-03-22 16:14:00,43.3,20.0,29.96,WSW,239,0.0,0.0,39,0.00,CLR,,0.00,WeatherDisplay:10.37,2013-03-22 21:14:00,
2013-03-22 16:19:00,43.7,20.3,29.96,WSW,238,0.0,0.0,39,0.00,CLR,,0.00,WeatherDisplay:10.37,2013-03-22 21:19:00,
2013-03-22 16:24:00,43.5,20.2,29.96,SSE,156,0.0,0.0,39,0.00,CLR,,0.00,WeatherDisplay:10.37,2013-03-22 21:24:00,
2013-03-22 16:29:00,43.3,20.6,29.96,South,184,0.0,0.0,40,0.00,CLR,,0.00,WeatherDisplay:10.37,2013-03-22 21:29:00,
2013-03-22 16:34:00,43.5,21.3,29.96,SW,215,1.2,1.2,41,0.00,CLR,,0.00,WeatherDisplay:10.37,2013-03-22 21:34:00,
2013-03-22 16:39:00,43.1,19.8,29.96,SW,221,2.3,0.0,39,0.00,CLR,,0.00,WeatherDisplay:10.37,2013-03-22 21:39:00,
2013-03-22 16:44:00,43.5,19.5,29.96,West,265,3.5,3.5,38,0.00,CLR,,0.00,WeatherDisplay:10.37,2013-03-22 21:44:00,
2013-03-22 16:50:00,43.6,20.2,29.96,West,269,0.0,0.0,39,0.00,CLR,,0.00,WeatherDisplay:10.37,2013-03-22 21:50:00,
2013-03-22 16:55:00,43.5,20.2,29.96,SW,232,0.0,0.0,39,0.00,CLR,,0.00,WeatherDisplay:10.37,2013-03-22 21:55:00,
2013-03-22 17:00:00,43.3,20.0,29.96,SW,232,0.0,0.0,39,0.00,CLR,,0.00,WeatherDisplay:10.37,2013-03-22 22:00:00,
2013-03-22 17:05:00,43.4,19.5,29.96,SSW,209,0.0,0.0,38,0.00,CLR,,0.00,WeatherDisplay:10.37,2013-03-22 22:05:00,
2013-03-22 17:10:00,43.1,19.8,29.96,SSW,210,0.0,0.0,39,0.00,CLR,,0.00,WeatherDisplay:10.37,2013-03-22 22:10:00,
2013-03-22 17:15:00,43.8,20.4,29.97,SW,219,0.0,0.0,39,0.00,CLR,,0.00,WeatherDisplay:10.37,2013-03-22 22:15:00,
2013-03-22 17:20:00,44.0,20.0,29.97,WSW,244,3.5,3.5,38,0.00,CLR,,0.00,WeatherDisplay:10.37,2013-03-22 22:20:00,
2013-03-22 17:25:00,44.0,20.0,29.97,SW,233,3.5,3.5,38,0.00,CLR,,0.00,WeatherDisplay:10.37,2013-03-22 22:25:00,
2013-03-22 17:30:00,43.8,19.8,29.97,WNW,283,2.3,2.3,38,0.00,CLR,,0.00,WeatherDisplay:10.37,2013-03-22 22:30:00,
2013-03-22 17:35:00,43.3,20.0,29.97,South,186,3.5,3.5,39,0.00,CLR,,0.00,WeatherDisplay:10.37,2013-03-22 22:35:00,
2013-03-22 17:41:00,43.0,19.7,29.97,SW,216,3.5,3.5,39,0.00,CLR,,0.00,WeatherDisplay:10.37,2013-03-22 22:41:00,
2013-03-22 17:46:00,43.4,20.1,29.97,WNW,284,3.5,0.0,39,0.00,CLR,,0.00,WeatherDisplay:10.37,2013-03-22 22:46:00,
2013-03-22 17:51:00,43.7,20.3,29.97,WNW,285,0.0,0.0,39,0.00,CLR,,0.00,WeatherDisplay:10.37,2013-03-22 22:51:00,
2013-03-22 17:56:00,43.6,20.2,29.97,SW,233,1.0,1.0,39,0.00,CLR,,0.00,WeatherDisplay:10.37,2013-03-22 22:56:00,
2013-03-22 18:02:00,43.3,20.0,29.98,WSW,249,2.3,2.3,39,0.00,CLR,,0.00,WeatherDisplay:10.37,2013-03-22 23:02:00,
2013-03-22 18:07:00,43.2,20.5,29.98,WSW,250,0.0,0.0,40,0.00,CLR,,0.00,WeatherDisplay:10.37,2013-03-22 23:07:00,
2013-03-22 18:12:00,43.0,20.3,29.98,WSW,250,2.3,2.3,40,0.00,CLR,,0.00,WeatherDisplay:10.37,2013-03-22 23:12:00,
2013-03-22 18:17:00,42.9,20.2,29.98,WSW,251,2.0,2.0,40,0.00,CLR,,0.00,WeatherDisplay:10.37,2013-03-22 23:17:00,
2013-03-22 18:22:00,43.0,20.3,29.97,West,273,0.0,0.0,40,0.00,CLR,,0.00,WeatherDisplay:10.37,2013-03-22 23:22:00,
2013-03-22 18:27:00,43.0,20.9,29.97,WNW,284,2.3,2.3,41,0.00,CLR,,0.00,WeatherDisplay:10.37,2013-03-22 23:27:00,
2013-03-22 18:32:00,42.9,20.2,29.97,WNW,290,1.0,1.0,40,0.00,CLR,,0.00,WeatherDisplay:10.37,2013-03-22 23:32:00,
2013-03-22 18:37:00,42.7,20.0,29.97,WNW,295,0.0,0.0,40,0.00,CLR,,0.00,WeatherDisplay:10.37,2013-03-22 23:37:00,
2013-03-22 18:43:00,42.6,20.5,29.97,WNW,296,0.0,0.0,41,0.00,CLR,,0.00,WeatherDisplay:10.37,2013-03-22 23:43:00,
2013-03-22 18:48:00,42.3,20.2,29.98,WNW,289,0.0,0.0,41,0.00,CLR,,0.00,WeatherDisplay:10.37,2013-03-22 23:48:00,
2013-03-22 18:53:00,42.0,20.0,29.97,WNW,289,0.0,0.0,41,0.00,CLR,,0.00,WeatherDisplay:10.37,2013-03-22 23:53:00,
2013-03-22 18:58:00,41.7,20.3,29.97,WNW,288,0.0,0.0,42,0.00,CLR,,0.00,WeatherDisplay:10.37,2013-03-22 23:58:00,
2013-03-22 19:03:00,41.5,20.1,29.97,WNW,289,0.0,0.0,42,0.00,CLR,,0.00,WeatherDisplay:10.37,2013-03-23 00:03:00,
2013-03-22 19:08:00,41.4,20.0,29.97,WNW,288,0.0,0.0,42,0.00,CLR,,0.00,WeatherDisplay:10.37,2013-03-23 00:08:00,
2013-03-22 19:13:00,41.1,20.3,29.96,WNW,289,0.0,0.0,43,0.00,CLR,,0.00,WeatherDisplay:10.37,2013-03-23 00:13:00,
2013-03-22 19:18:00,40.4,20.2,29.96,WNW,289,0.0,0.0,44,0.00,CLR,,0.00,WeatherDisplay:10.37,2013-03-23 00:18:00,
2013-03-22 19:23:00,39.7,20.6,29.97,WNW,288,0.0,0.0,46,0.00,CLR,,0.00,WeatherDisplay:10.37,2013-03-23 00:23:00,
2013-03-22 19:29:00,39.3,20.2,29.97,WNW,289,0.0,0.0,46,0.00,CLR,,0.00,WeatherDisplay:10.37,2013-03-23 00:29:00,
2013-03-22 19:34:00,38.9,20.4,29.98,WNW,289,0.0,0.0,47,0.00,CLR,,0.00,WeatherDisplay:10.37,2013-03-23 00:34:00,
2013-03-22 19:39:00,38.4,20.4,29.98,WNW,289,0.0,0.0,48,0.00,CLR,,0.00,WeatherDisplay:10.37,2013-03-23 00:39:00,
2013-03-22 19:44:00,38.0,21.0,29.98,WNW,289,0.0,0.0,50,0.00,CLR,,0.00,WeatherDisplay:10.37,2013-03-23 00:44:00,
2013-03-22 19:49:00,37.7,20.7,29.98,WNW,289,0.0,0.0,50,0.00,CLR,,0.00,WeatherDisplay:10.37,2013-03-23 00:49:00,
2013-03-22 19:54:00,37.4,20.9,29.98,WNW,288,0.0,0.0,51,0.00,CLR,,0.00,WeatherDisplay:10.37,2013-03-23 00:54:00,
2013-03-22 19:59:00,37.1,20.6,29.98,WNW,288,0.0,0.0,51,0.00,CLR,,0.00,WeatherDisplay:10.37,2013-03-23 00:59:00,
2013-03-22 20:05:00,36.9,20.4,29.98,WNW,289,0.0,0.0,51,0.00,CLR,,0.00,WeatherDisplay:10.37,2013-03-23 01:05:00,
2013-03-22 20:10:00,36.7,20.7,29.98,WNW,289,0.0,0.0,52,0.00,CLR,,0.00,WeatherDisplay:10.37,2013-03-23 01:10:00,
2013-03-22 20:15:00,36.5,20.5,29.98,WNW,289,0.0,0.0,52,0.00,CLR,,0.00,WeatherDisplay:10.37,2013-03-23 01:15:00,
2013-03-22 20:20:00,36.4,20.9,29.98,WNW,288,0.0,0.0,53,0.00,CLR,,0.00,WeatherDisplay:10.37,2013-03-23 01:20:00,
2013-03-22 20:25:00,36.2,21.6,29.98,WNW,289,0.0,0.0,55,0.00,CLR,,0.00,WeatherDisplay:10.37,2013-03-23 01:25:00,
2013-03-22 20:30:00,36.1,21.0,29.98,WNW,289,0.0,0.0,54,0.00,CLR,,0.00,WeatherDisplay:10.37,2013-03-23 01:30:00,
2013-03-22 20:36:00,36.0,21.4,29.98,WNW,289,0.0,0.0,55,0.00,CLR,,0.00,WeatherDisplay:10.37,2013-03-23 01:36:00,
2013-03-22 20:41:00,36.0,20.9,29.98,WNW,289,0.0,0.0,54,0.00,CLR,,0.00,WeatherDisplay:10.37,2013-03-23 01:41:00,
2013-03-22 20:46:00,35.9,21.3,29.98,WNW,288,0.0,0.0,55,0.00,CLR,,0.00,WeatherDisplay:10.37,2013-03-23 01:46:00,
2013-03-22 20:51:00,35.8,22.0,29.98,WNW,289,0.0,0.0,57,0.00,CLR,,0.00,WeatherDisplay:10.37,2013-03-23 01:51:00,
2013-03-22 20:56:00,35.6,21.9,29.98,WNW,289,0.0,0.0,57,0.00,CLR,,0.00,WeatherDisplay:10.37,2013-03-23 01:56:00,
2013-03-22 21:01:00,35.4,20.8,29.99,WNW,288,0.0,0.0,55,0.00,CLR,,0.00,WeatherDisplay:10.37,2013-03-23 02:01:00,
2013-03-22 21:07:00,35.5,21.8,29.99,WNW,288,0.0,0.0,57,0.00,CLR,,0.00,WeatherDisplay:10.37,2013-03-23 02:07:00,
2013-03-22 21:12:00,35.7,22.4,29.99,WNW,289,0.0,0.0,58,0.00,CLR,,0.00,WeatherDisplay:10.37,2013-03-23 02:12:00,
2013-03-22 21:17:00,35.9,22.5,29.99,WNW,288,0.0,0.0,58,0.00,CLR,,0.00,WeatherDisplay:10.37,2013-03-23 02:17:00,
2013-03-22 21:22:00,36.2,22.4,29.99,WNW,289,0.0,0.0,57,0.00,CLR,,0.00,WeatherDisplay:10.37,2013-03-23 02:22:00,
2013-03-22 21:28:00,36.4,22.6,29.99,WNW,288,0.0,0.0,57,0.00,CLR,,0.00,WeatherDisplay:10.37,2013-03-23 02:28:00,
2013-03-22 21:33:00,36.4,23.4,30.00,WNW,288,0.0,0.0,59,0.00,CLR,,0.00,WeatherDisplay:10.37,2013-03-23 02:33:00,
2013-03-22 21:38:00,36.0,23.8,30.00,WNW,288,0.0,0.0,61,0.00,CLR,,0.00,WeatherDisplay:10.37,2013-03-23 02:38:00,
2013-03-22 21:43:00,35.9,23.7,30.00,WNW,288,0.0,0.0,61,0.00,CLR,,0.00,WeatherDisplay:10.37,2013-03-23 02:43:00,
2013-03-22 21:48:00,35.8,23.7,30.00,WNW,288,0.0,0.0,61,0.00,CLR,,0.00,WeatherDisplay:10.37,2013-03-23 02:48:00,
2013-03-22 21:53:00,35.7,23.2,30.00,WNW,288,0.0,0.0,60,0.00,CLR,,0.00,WeatherDisplay:10.37,2013-03-23 02:53:00,
2013-03-22 21:58:00,35.7,23.6,30.00,WNW,288,0.0,0.0,61,0.00,CLR,,0.00,WeatherDisplay:10.37,2013-03-23 02:58:00,
2013-03-22 22:03:00,35.6,23.5,30.00,WNW,288,0.0,0.0,61,0.00,CLR,,0.00,WeatherDisplay:10.37,2013-03-23 03:03:00,
2013-03-22 22:08:00,35.6,23.5,30.00,WNW,288,0.0,0.0,61,0.00,CLR,,0.00,WeatherDisplay:10.37,2013-03-23 03:08:00,
2013-03-22 22:14:00,35.6,23.9,30.00,WNW,288,0.0,0.0,62,0.00,CLR,,0.00,WeatherDisplay:10.37,2013-03-23 03:14:00,
2013-03-22 22:19:00,35.6,24.2,30.00,WNW,288,0.0,0.0,63,0.00,CLR,,0.00,WeatherDisplay:10.37,2013-03-23 03:19:00,
2013-03-22 22:24:00,35.5,24.1,30.00,WNW,288,0.0,0.0,63,0.00,CLR,,0.00,WeatherDisplay:10.37,2013-03-23 03:24:00,
2013-03-22 22:29:00,35.3,24.0,30.00,WNW,288,0.0,0.0,63,0.00,CLR,,0.00,WeatherDisplay:10.37,2013-03-23 03:29:00,
2013-03-22 22:34:00,35.2,23.5,30.00,WNW,288,0.0,0.0,62,0.00,CLR,,0.00,WeatherDisplay:10.37,2013-03-23 03:34:00,
2013-03-22 22:40:00,35.1,23.4,30.00,WNW,288,0.0,0.0,62,0.00,CLR,,0.00,WeatherDisplay:10.37,2013-03-23 03:40:00,
2013-03-22 22:45:00,35.0,22.9,30.00,WNW,288,0.0,0.0,61,0.00,CLR,,0.00,WeatherDisplay:10.37,2013-03-23 03:45:00,
2013-03-22 22:50:00,35.1,23.0,30.00,WNW,288,0.0,0.0,61,0.00,CLR,,0.00,WeatherDisplay:10.37,2013-03-23 03:50:00,
2013-03-22 22:55:00,35.1,23.0,30.00,WNW,288,0.0,0.0,61,0.00,CLR,,0.00,WeatherDisplay:10.37,2013-03-23 03:55:00,
2013-03-22 23:00:00,35.2,23.1,30.00,WNW,288,0.0,0.0,61,0.00,CLR,,0.00,WeatherDisplay:10.37,2013-03-23 04:00:00,
2013-03-22 23:01:00,35.2,23.1,30.00,WNW,288,0.0,0.0,61,0.00,CLR,,0.00,WeatherDisplay:10.37,2013-03-23 04:01:00,
2013-03-22 23:06:00,35.2,23.5,30.00,WNW,288,0.0,0.0,62,0.00,CLR,,0.00,WeatherDisplay:10.37,2013-03-23 04:06:00,
2013-03-22 23:11:00,35.3,24.0,30.00,WNW,288,0.0,0.0,63,0.00,CLR,,0.00,WeatherDisplay:10.37,2013-03-23 04:11:00,
2013-03-22 23:17:00,35.4,24.0,30.00,WNW,288,0.0,0.0,63,0.00,CLR,,0.00,WeatherDisplay:10.37,2013-03-23 04:17:00,
2013-03-22 23:22:00,35.4,24.8,30.00,WNW,288,0.0,0.0,65,0.00,CLR,,0.00,WeatherDisplay:10.37,2013-03-23 04:22:00,
2013-03-22 23:28:00,35.4,24.8,29.99,WNW,288,0.0,0.0,65,0.00,CLR,,0.00,WeatherDisplay:10.37,2013-03-23 04:28:00,
2013-03-22 23:33:00,35.4,25.2,29.99,WNW,288,0.0,0.0,66,0.00,CLR,,0.00,WeatherDisplay:10.37,2013-03-23 04:33:00,
2013-03-22 23:38:00,35.2,25.0,29.99,WNW,288,0.0,0.0,66,0.00,CLR,,0.00,WeatherDisplay:10.37,2013-03-23 04:38:00,
2013-03-22 23:43:00,35.2,25.0,29.99,WNW,288,0.0,0.0,66,0.00,CLR,,0.00,WeatherDisplay:10.37,2013-03-23 04:43:00,
2013-03-22 23:48:00,35.3,25.1,29.99,WNW,288,0.0,0.0,66,0.00,CLR,,0.00,WeatherDisplay:10.37,2013-03-23 04:48:00,
2013-03-22 23:53:00,35.3,25.1,29.99,WNW,288,0.0,0.0,66,0.00,CLR,,0.00,WeatherDisplay:10.37,2013-03-23 04:53:00,
2013-03-22 23:59:00,35.2,25.0,29.99,WNW,288,0.0,0.0,66,0.00,CLR,,0.00,WeatherDisplay:10.37,2013-03-23 04:59:00,